Dewpoint
53 47 47 46 44 42 42 43 48 44 42 41 42 43 44 44 43 46 45 46 45 42
49 47 46 46 47 42 44 42 43 41 41 41 42 43 44 43 44 44 46 47 46 43
48 46 45 46 43 43 43 39 42 42 41 41 41 42 42 42 42 43 43 42 43 43
47 46 44 41 41 42 43 41 40 39 39 39 39 40 41 42 41 40 42 43 42 41
44 42 40 41 42 44 41 41 39 38 38 38 38 40 41 41 40 41 40 40 41 40
42 40 41 41 41 40 39 38 37 37 39 39 40 40 40 39 39 40 40 40 40 40
39 40 41 41 39 39 38 37 37 39 39 40 39 37 37 38 39 39 39 41 41 40
40 42 41 40 39 38 37 37 37 38 38 39 38 34 37 37 37 37 37 39 37 39
40 39 39 39 38 39 39 38 37 37 37 38 35 37 36 36 35 36 36 36 36 36
37 35 36 35 36 37 38 39 38 38 38 38 39 36 35 35 33 36 36 36 36 34
35 34 34 35 36 37 38 38 39 39 38 38 36 35 35 34 35 36 35 35 34 34
34 34 35 35 37 37 38 38 38 37 37 37 37 34 34 33 34 34 34 33 34 33
35 35 35 37 38 38 38 37 37 35 35 33 34 34 34 33 33 33 33 33 33 33
36 36 37 38 37 37 37 36 35 33 35 34 34 33 32 33 31 32 33 33 34 34
Lifted_Index
-1 1 4 7 8 9 10 10 11 12 12 13 13 13 13 13 13 13 13 13 13 13
2 4 6 8 9 10 11 11 12 12 13 13 13 13 13 14 14 13 13 13 13 13
6 7 9 9 10 11 12 12 13 13 13 13 14 14 14 14 14 14 13 13 13 13
9 10 10 11 12 12 13 13 13 13 14 14 14 14 14 14 14 14 13 13 13 13
11 11 12 12 13 13 13 14 14 14 14 14 14 14 14 14 14 14 13 13 13 13
12 12 13 13 13 14 14 14 14 14 15 15 15 15 15 15 14 14 13 13 13 12
12 13 13 14 14 14 15 15 15 15 15 15 15 15 15 15 15 14 14 13 13 12
13 13 14 15 14 14 15 15 15 15 15 15 15 16 16 16 15 14 14 14 13 13
13 14 15 15 13 13 14 15 15 15 15 15 15 15 16 15 15 15 15 14 14 13
14 15 15 14 12 12 14 15 15 15 15 15 15 15 15 15 15 15 15 15 15 15
15 15 14 13 12 13 15 15 15 16 16 16 16 16 16 16 16 16 16 15 15 15
15 14 13 12 13 14 15 16 16 16 16 16 16 16 17 17 17 16 15 15 15 15
14 13 12 13 14 15 16 16 16 16 16 16 16 17 17 17 17 16 15 15 15 15
13 13 13 13 15 16 16 16 16 16 16 16 17 17 17 17 17 16 15 15 15 15